Home   Weather   Cape Coral   Past weeks

Flag for USA Past Weather in Cape Coral, Florida, USA — Yesterday and Last 2 Weeks

77 °F


Feels Like: 79 °F
Forecast: 67 / 84 °F
Wind: 7 mph from East

Location: Page Field

Current Time: Oct 26, 2016 at 7:29:49 PM

Latest Report: Oct 26, 2016 at 6:53 PM

Visibility: 10 mi

Pressure: 30.11 "Hg

Humidity: 58%

Dew Point: 61 °F

Location of Cape CoralLocation

Past Weather in Cape Coral — Graph


Cape Coral Temperature Yesterday

Maximum temperature yesterday: 82 °F (at 2:53 PM)
Minimum temperature yesterday: 63 °F (at 6:53 AM)
Average temperature yesterday: 72 °F

High & Low Weather Summary for the Past Weeks

High89 °F (Oct 14, 2:53 PM)97% (Oct 14, 5:53 AM)30.23 "Hg (Oct 14, 5:53 AM)
Low56 °F (Oct 23, 7:53 AM)24% (Oct 22, 4:53 PM)29.80 "Hg (Oct 21, 4:53 PM)
Average75 °F71%30.02 "Hg
* Reported Oct 11 5:53 PM — Oct 26 5:53 PM, Cape Coral, Weather by CustomWeather, © 2016

Note: Actual official high and low records may vary slightly from our data, if they occured in-between our weather recording intervals... More about our weather records


Cape Coral Weather History for the Previous 24 Hours

Scroll right to see more
Time TempWeatherWind HumidityBarometerVisibility
5:53 PM
Wed, Oct 26
79 °FSunny.12 mph50%30.09 "Hg10 mi
4:53 PM81 °FSunny.16 mph49%30.09 "Hg10 mi
3:53 PM82 °FScattered clouds.17 mph51%30.09 "Hg10 mi
2:53 PM82 °FPartly sunny.15 mph51%30.10 "Hg10 mi
1:53 PM83 °FScattered clouds.17 mph48%30.11 "Hg10 mi
12:53 PM83 °FScattered clouds.17 mph51%30.14 "Hg10 mi
11:53 AM81 °FPassing clouds.16 mph54%30.16 "Hg10 mi
10:53 AM78 °FSunny.12 mph60%30.17 "Hg10 mi
9:53 AM73 °FSunny.8 mph71%30.17 "Hg10 mi
8:53 AM68 °FSunny.7 mph84%30.16 "Hg10 mi
7:53 AM64 °FSunny.7 mph94%30.15 "Hg10 mi
6:53 AM65 °FClear.5 mph91%30.14 "Hg10 mi
5:53 AM65 °FClear.6 mph91%30.13 "Hg10 mi
4:53 AM65 °FClear.6 mph91%30.13 "Hg10 mi
3:53 AM66 °FClear.6 mph87%30.13 "Hg10 mi
2:53 AM66 °FClear.5 mph87%30.14 "Hg10 mi
1:53 AM67 °FPassing clouds.6 mph85%30.15 "Hg10 mi
12:53 AM68 °FClear.6 mph82%30.16 "Hg10 mi
11:53 PM
Tue, Oct 25
69 °FClear.7 mph79%30.16 "Hg10 mi
10:53 PM70 °FClear.7 mph76%30.17 "Hg10 mi
9:53 PM71 °FClear.8 mph73%30.16 "Hg10 mi
8:53 PM73 °FClear.6 mph66%30.15 "Hg10 mi
7:53 PM74 °FClear.10 mph64%30.13 "Hg10 mi
Weather by CustomWeather, © 2016

See weather overviewHow to use our weather pages